Date,TemperatureHighF,TemperatureAvgF,TemperatureLowF,DewpointHighF,DewpointAvgF,DewpointLowF,HumidityHigh,HumidityAvg,HumidityLow,PressureMaxIn,PressureMinIn,WindSpeedMaxMPH,WindSpeedAvgMPH,GustSpeedMaxMPH,PrecipitationSumIn
2013-1-1,37,30,26,37,30,26,100,99,93,30.12,30.01,3,0,9,0.01
2013-1-2,41,31,27,32,28,26,100,88,68,30.01,29.86,6,1,8,0.00
2013-1-3,40,32,26,33,28,25,96,87,66,29.92,29.81,3,0,7,0.00
2013-1-4,43,39,35,43,38,32,100,98,89,30.00,29.86,3,0,6,0.00
2013-1-5,40,36,34,38,36,34,100,97,85,29.89,29.84,2,0,6,0.01
2013-1-6,45,38,34,45,38,34,100,100,100,29.91,29.75,4,0,13,0.05
2013-1-7,52,48,45,52,47,45,100,99,93,29.90,29.67,9,4,13,0.18
2013-1-8,54,50,45,52,49,45,100,94,82,29.90,29.60,8,4,18,0.02
2013-1-9,52,42,33,46,40,33,100,94,79,29.66,29.41,9,4,16,0.24
2013-1-10,40,36,32,40,36,32,100,100,100,29.78,29.65,4,1,6,0.06
2013-1-11,34,29,25,34,29,25,100,100,100,29.97,29.77,6,1,8,0.00
2013-1-12,31,25,20,31,25,20,100,100,100,30.07,29.97,3,0,5,0.00
2013-1-13,29,26,21,29,26,20,100,100,100,30.16,30.06,2,0,3,0.00
2013-1-14,32,30,26,32,30,26,100,100,100,30.22,30.15,3,0,6,0.01
2013-1-15,40,35,32,40,35,32,100,100,100,30.33,30.22,2,0,6,0.01
2013-1-16,35,33,31,35,33,31,100,100,100,30.32,30.16,3,0,4,0.00
2013-1-17,39,32,28,39,32,28,100,100,100,30.16,29.98,3,0,6,0.00
2013-1-18,32,29,26,32,29,26,100,100,100,29.99,29.94,3,0,6,0.00
2013-1-19,33,29,27,33,29,27,100,100,100,30.01,29.95,3,0,4,0.01
2013-1-20,35,30,27,35,30,27,100,100,100,30.02,29.91,4,1,6,0.00
2013-1-21,34,28,26,34,28,26,100,100,100,29.94,29.82,4,0,6,0.00
2013-1-22,36,29,25,36,29,25,100,100,100,29.83,29.61,4,0,6,0.00
2013-1-23,36,33,32,36,33,32,100,100,100,29.87,29.57,4,0,5,0.24
2013-1-24,38,36,33,38,36,33,100,100,100,29.90,29.79,3,0,6,0.16
2013-1-25,51,42,34,51,42,34,100,100,100,29.81,29.64,3,0,4,0.03
2013-1-26,46,39,34,45,39,34,100,100,93,29.77,29.61,6,1,8,0.14
2013-1-27,42,38,32,42,38,32,100,100,100,29.83,29.73,4,2,7,0.13
2013-1-28,45,42,38,45,42,38,100,100,100,29.90,29.76,7,4,9,0.01
2013-1-29,48,46,44,48,46,44,100,99,93,30.17,29.90,8,5,9,0.01
2013-1-30,54,48,44,51,48,44,100,99,87,30.16,30.12,8,5,9,0.00
2013-1-31,55,48,42,53,46,42,100,93,71,30.14,30.02,5,1,6,0.01
2013-2-1,54,46,40,50,45,40,100,96,80,30.04,29.95,2,0,7,0.00
2013-2-2,52,41,33,47,40,33,100,96,74,29.99,29.94,4,1,6,0.00
2013-2-3,47,41,32,47,41,32,100,100,100,30.01,29.91,2,0,5,0.00
2013-2-4,50,44,41,50,44,41,100,99,87,29.92,29.63,3,0,6,0.00
2013-2-5,51,44,39,51,44,39,100,100,96,29.73,29.60,7,3,9,0.28
2013-2-6,51,45,40,46,44,40,100,95,80,29.78,29.54,7,3,13,0.13
2013-2-7,48,39,33,48,38,33,100,98,73,29.82,29.61,7,1,10,0.06
2013-2-8,44,36,29,44,36,29,100,100,100,29.96,29.82,7,1,7,0.01
2013-2-9,46,40,34,46,40,34,100,100,99,30.00,29.94,2,0,6,0.05
2013-2-10,48,43,40,48,42,39,100,98,90,30.03,29.99,3,0,6,0.01
2013-2-11,48,43,40,45,42,40,100,96,78,30.09,30.01,3,0,8,0.01
2013-2-12,55,48,42,52,47,42,100,96,78,30.16,30.09,7,3,9,0.00
2013-2-13,52,48,45,51,46,44,100,94,77,30.21,30.12,7,2,8,0.01
2013-2-14,56,47,38,53,45,38,100,93,73,30.25,30.18,4,1,6,0.00
2013-2-15,58,48,39,51,45,39,100,91,68,30.18,29.90,6,1,8,0.00
2013-2-16,52,44,37,51,42,37,100,93,67,29.96,29.89,9,3,10,0.00
2013-2-17,51,40,33,49,37,33,100,88,63,29.97,29.77,3,1,7,0.00
2013-2-18,48,40,32,44,38,32,100,94,66,29.77,29.41,5,1,9,0.04
2013-2-19,53,41,34,50,39,34,100,93,59,29.67,29.35,6,2,9,0.01
2013-2-20,49,39,33,48,39,33,100,97,75,29.77,29.67,6,2,7,0.09
2013-2-21,45,41,38,45,41,38,100,99,90,29.88,29.77,7,4,9,0.14
2013-2-22,46,43,38,46,43,38,100,99,91,29.86,29.58,10,4,11,0.64
2013-2-23,48,39,34,45,38,34,100,95,68,30.10,29.75,6,3,11,0.06
2013-2-24,54,44,35,48,37,33,100,80,49,30.10,29.75,8,1,11,0.00
2013-2-25,49,42,35,46,40,35,100,92,60,30.06,29.71,10,4,13,0.24
2013-2-26,51,40,30,46,38,30,100,92,69,30.06,29.92,6,1,10,0.00
2013-2-27,52,46,40,47,43,40,100,93,73,29.99,29.91,6,1,14,0.01
2013-2-28,59,53,46,56,53,46,100,97,85,30.13,29.88,7,4,14,0.00
2013-3-1,60,53,45,55,52,44,100,94,76,30.14,30.00,11,2,11,0.00
2013-3-2,56,49,38,53,47,38,100,95,89,30.00,29.87,7,2,9,0.00
2013-3-3,53,40,30,47,36,30,100,86,52,30.00,29.91,5,2,9,0.00
2013-3-4,58,42,31,44,35,30,100,79,38,29.91,29.58,6,2,8,0.00
2013-3-5,48,42,35,48,42,35,100,100,98,29.58,29.32,4,1,10,0.45
2013-3-6,45,42,38,45,41,38,100,97,86,29.64,29.23,5,1,11,0.39
2013-3-7,58,42,32,50,38,32,100,89,54,29.74,29.64,4,1,8,0.01
2013-3-8,62,44,32,52,40,32,100,88,49,29.89,29.70,5,2,9,0.00
2013-3-9,63,44,31,48,39,31,100,86,51,30.17,29.89,7,2,11,0.00
2013-3-10,53,44,34,51,43,34,100,95,73,30.17,30.10,3,0,6,0.00
2013-3-11,56,48,41,54,46,41,100,96,89,30.11,29.94,6,1,8,0.00
2013-3-12,62,53,46,54,48,44,100,84,59,29.94,29.86,6,2,10,0.00
2013-3-13,66,56,47,55,51,46,100,84,62,29.91,29.79,5,2,9,0.00
2013-3-14,56,52,45,51,48,44,100,89,66,29.90,29.75,6,2,9,0.00
2013-3-15,66,53,44,56,49,43,100,87,53,29.93,29.87,7,2,9,0.00
2013-3-16,51,45,37,49,45,37,100,100,89,29.87,29.72,8,3,11,0.17
2013-3-17,50,42,35,42,38,35,100,87,61,29.98,29.84,8,4,13,0.01
2013-3-18,56,42,32,45,37,32,100,85,48,29.97,29.83,6,1,10,0.00
2013-3-19,46,42,36,45,41,36,100,98,86,29.83,29.34,4,0,7,0.60
2013-3-20,52,47,36,50,45,36,100,92,72,29.84,29.23,12,6,21,0.42
2013-3-21,50,40,35,44,38,34,100,91,55,29.98,29.84,9,4,12,0.08
2013-3-22,51,41,33,43,38,32,100,89,57,30.06,29.97,7,2,10,0.09
2013-3-23,52,38,32,42,34,30,100,86,48,30.06,29.94,4,1,8,0.00
2013-3-24,59,44,34,41,37,34,100,79,45,29.94,29.77,5,1,9,0.00
2013-3-25,59,47,39,44,39,34,98,75,44,29.77,29.62,5,2,9,0.00
2013-3-26,54,46,39,51,46,39,100,97,82,29.72,29.65,5,0,7,0.01
2013-3-27,63,50,42,53,46,39,100,89,60,29.69,29.61,6,1,10,0.00
2013-3-28,68,55,44,56,49,41,100,82,47,29.84,29.69,7,2,9,0.00
2013-3-29,73,56,46,57,51,46,100,85,45,29.91,29.84,7,2,9,0.02
2013-3-30,79,60,44,56,50,44,100,75,37,29.87,29.67,5,2,9,0.00
2013-3-31,74,59,44,56,51,44,100,75,48,29.72,29.65,9,3,11,0.00
2013-4-1,66,57,48,56,52,48,100,84,62,29.87,29.72,7,4,10,0.00
2013-4-2,67,54,46,54,50,46,100,87,51,29.92,29.84,6,2,9,0.00
2013-4-3,64,54,42,57,51,40,100,91,70,29.86,29.62,5,1,7,0.00
2013-4-4,60,56,53,59,55,51,100,98,84,29.62,29.40,7,2,14,0.24
2013-4-5,60,53,50,55,52,49,100,97,72,29.66,29.51,8,4,17,0.28
2013-4-6,57,49,46,54,48,43,100,94,77,29.70,29.38,7,3,17,0.75
2013-4-7,51,47,41,51,46,41,100,95,87,29.66,29.26,13,6,20,0.16
2013-4-8,55,47,38,48,43,38,100,87,64,29.97,29.66,8,3,12,0.02
2013-4-9,58,48,38,52,45,38,100,92,66,30.06,29.94,4,1,9,0.00
2013-4-10,60,53,44,56,48,40,100,85,62,30.03,29.82,10,4,15,0.04
2013-4-11,60,49,37,50,43,37,100,81,51,30.04,29.86,7,1,8,0.00
2013-4-12,54,46,35,47,42,35,100,89,69,29.86,29.56,9,2,13,0.05
2013-4-13,53,45,38,42,39,35,100,82,54,29.79,29.62,9,4,16,0.04
2013-4-14,53,44,39,44,41,39,100,92,61,29.77,29.64,8,2,10,0.01
2013-4-15,59,46,36,51,40,36,100,80,46,29.86,29.63,8,2,10,0.00
2013-4-16,62,47,35,47,41,35,100,82,51,30.08,29.86,9,2,10,0.00
2013-4-17,61,47,35,48,41,35,100,83,48,30.19,30.08,7,2,9,0.00
2013-4-18,63,53,44,49,46,42,100,79,54,30.17,30.02,6,2,11,0.00
2013-4-19,58,52,45,57,50,45,100,96,79,30.02,29.86,9,4,13,0.16
2013-4-20,62,52,45,49,46,43,100,81,56,30.05,29.98,6,4,11,0.00
2013-4-21,58,50,45,49,46,44,100,86,68,30.01,29.94,6,2,10,0.00
2013-4-22,70,53,38,48,39,32,100,65,25,30.12,30.01,4,1,15,0.00
2013-4-23,75,55,40,41,37,31,85,55,21,30.06,29.86,5,2,10,0.00
2013-4-24,78,59,42,41,37,31,78,48,19,29.92,29.72,7,2,13,0.00
2013-4-25,78,60,43,50,45,39,94,61,32,29.86,29.72,5,2,8,0.00
2013-4-26,81,63,43,58,46,36,100,61,20,29.96,29.86,6,2,7,0.00
2013-4-27,74,58,42,49,42,37,97,60,27,29.98,29.91,7,3,11,0.00
2013-4-28,68,58,48,54,46,40,100,68,39,29.98,29.81,7,4,12,0.00
2013-4-29,61,52,37,51,41,33,100,69,39,29.92,29.78,9,4,13,0.03
2013-4-30,62,46,34,46,36,34,100,74,35,30.12,29.92,6,1,9,0.00
2013-5-1,71,52,34,43,38,32,100,65,24,30.21,30.12,6,1,9,0.00
2013-5-2,80,61,44,45,40,35,75,49,24,30.14,29.96,5,1,9,0.00
2013-5-3,81,63,44,49,42,36,78,50,29,29.99,29.84,7,2,10,0.00
2013-5-4,86,67,50,51,43,35,83,47,18,29.84,29.61,7,1,19,0.00
2013-5-5,89,70,50,50,42,38,72,42,17,29.61,29.43,10,2,13,0.00
2013-5-6,85,63,46,57,50,45,100,67,35,29.92,29.47,6,2,10,0.00
2013-5-7,73,59,48,54,51,48,100,79,46,30.05,29.91,8,2,15,0.00
2013-5-8,73,56,45,57,52,45,100,87,55,30.17,30.05,5,1,9,0.00
2013-5-9,85,64,45,59,53,45,100,72,36,30.22,30.12,5,1,8,0.00
2013-5-10,83,66,50,60,54,49,100,71,42,30.23,30.15,6,2,9,0.00
2013-5-11,86,68,51,62,56,50,100,69,36,30.21,30.06,7,2,9,0.00
2013-5-12,71,63,57,60,57,54,100,82,60,30.16,30.10,6,2,10,0.15
2013-5-13,68,57,48,62,52,45,100,82,58,30.24,30.07,8,2,12,0.01
2013-5-14,73,56,42,54,44,39,100,69,31,30.24,30.13,5,1,10,0.00
2013-5-15,60,54,45,55,50,43,100,89,77,30.13,30.04,5,1,10,0.07
2013-5-16,61,56,51,60,54,49,100,96,73,30.04,29.97,6,1,9,0.14
2013-5-17,68,54,45,59,48,44,100,83,51,30.12,30.01,5,1,9,0.01
2013-5-18,59,52,45,57,52,45,100,98,74,30.29,30.11,2,0,8,0.11
2013-5-19,67,58,48,59,52,48,100,82,56,30.43,30.29,6,1,10,0.16
2013-5-20,76,57,42,55,48,40,100,74,39,30.35,29.94,6,2,10,0.00
2013-5-21,56,48,42,52,47,42,100,95,78,29.99,29.86,8,3,12,0.21
2013-5-22,51,47,42,51,46,42,100,99,88,29.99,29.94,7,2,13,0.22
2013-5-23,55,49,45,54,49,45,100,99,83,30.02,29.97,7,1,13,0.79
2013-5-24,62,52,46,56,50,44,100,92,73,30.10,29.99,7,2,16,0.14
2013-5-25,72,58,48,55,51,48,100,79,49,30.09,29.96,6,1,13,0.15
2013-5-26,66,57,50,61,52,48,100,84,59,30.08,29.96,6,2,10,0.17
2013-5-27,68,57,51,63,54,50,100,91,64,30.01,29.76,9,2,21,0.47
2013-5-28,66,56,50,56,50,45,100,82,49,29.97,29.78,8,2,12,0.11
2013-5-29,64,55,49,56,51,48,100,89,61,30.08,29.64,10,4,14,0.31
2013-5-30,63,55,48,55,50,46,100,84,59,30.27,30.08,7,2,10,0.05
2013-5-31,71,56,48,54,49,45,100,79,43,30.35,30.26,4,1,9,0.00
2013-6-1,77,61,45,57,52,45,100,77,47,30.26,30.06,6,1,9,0.00
2013-6-2,74,61,50,55,53,50,100,78,50,30.11,30.06,5,1,9,0.00
2013-6-3,79,61,45,58,52,45,100,75,37,30.14,30.07,4,1,9,0.00
2013-6-4,86,64,46,59,53,46,100,71,31,30.12,30.01,3,1,8,0.00
2013-6-5,86,70,53,65,57,53,100,69,33,30.13,30.03,5,1,7,0.00
2013-6-6,87,68,53,64,57,50,100,72,38,30.09,30.03,5,2,9,0.00
2013-6-7,80,64,49,62,53,46,100,72,31,30.18,30.08,7,2,10,0.00
2013-6-8,82,64,47,57,50,46,100,67,32,30.20,30.09,5,1,10,0.00
2013-6-9,79,63,48,59,49,46,100,65,32,30.14,30.03,5,1,10,0.00
2013-6-10,74,58,43,55,47,43,100,71,39,30.06,29.94,6,2,10,0.00
2013-6-11,67,58,51,52,47,45,90,68,46,30.17,30.02,7,2,12,0.00
2013-6-12,66,58,52,54,49,46,98,72,54,30.21,30.16,7,2,11,0.00
2013-6-13,66,55,50,59,53,49,100,94,72,30.31,30.18,6,2,9,0.35
2013-6-14,72,58,45,59,51,45,100,81,50,30.31,30.01,4,1,9,0.00
2013-6-15,80,64,48,61,54,48,100,74,36,30.04,29.95,7,2,9,0.00
2013-6-16,76,62,49,59,54,49,100,78,50,30.14,30.04,6,2,10,0.00
2013-6-17,77,62,48,58,53,48,100,74,39,30.14,30.01,7,2,11,0.00
2013-6-18,69,57,48,60,51,48,100,82,55,30.04,29.98,6,1,15,0.13
2013-6-19,68,58,48,55,50,47,100,77,49,30.12,29.97,7,2,13,0.00
2013-6-20,71,58,51,62,53,49,100,84,51,30.16,30.09,6,1,9,0.19
2013-6-21,73,61,52,59,53,50,100,79,45,30.20,30.14,3,0,10,0.00
2013-6-22,81,66,50,62,54,50,100,70,37,30.14,29.89,6,1,8,0.00
2013-6-23,71,63,57,66,59,47,100,88,54,29.89,29.67,5,1,9,0.04
2013-6-24,68,60,54,61,56,52,100,87,59,29.75,29.67,6,1,13,0.09
2013-6-25,71,60,55,64,58,54,100,94,65,29.89,29.70,6,1,10,0.11
2013-6-26,75,64,58,64,60,58,100,87,56,30.08,29.88,6,1,10,0.03
2013-6-27,61,61,60,61,61,60,100,100,100,30.07,30.05,0,0,0,0.00
2013-6-29,91,81,67,66,62,59,88,55,35,30.15,30.02,3,1,8,0.00
2013-6-30,98,77,61,71,63,55,100,67,24,30.02,29.92,7,2,9,0.00
2013-7-1,94,76,61,70,64,60,100,70,40,30.05,29.95,5,1,8,0.00
2013-7-2,94,76,61,71,61,49,100,64,35,30.12,30.05,5,1,7,0.00
2013-7-3,90,72,56,57,52,44,100,56,24,30.18,30.08,5,2,10,0.00
2013-7-4,80,65,50,60,52,50,100,68,42,30.18,30.08,6,1,10,0.00
2013-7-5,79,64,48,60,52,48,100,70,40,30.10,29.99,5,1,10,0.00
2013-7-6,82,64,49,59,54,49,100,74,42,30.01,29.90,6,2,9,0.00
2013-7-7,86,66,51,60,55,51,100,72,37,30.01,29.93,6,1,10,0.00
2013-7-8,87,65,50,59,55,50,100,74,35,30.12,30.01,4,1,9,0.00
2013-7-9,93,73,55,65,58,54,100,65,27,30.12,30.03,7,1,9,0.00
2013-7-10,88,67,54,57,54,45,100,67,35,30.11,29.98,5,1,9,0.00
2013-7-11,80,65,49,56,49,47,100,61,33,30.12,30.00,7,2,10,0.00
2013-7-12,79,61,47,56,49,45,100,68,34,30.13,30.03,6,1,10,0.00
2013-7-13,82,65,47,53,48,42,100,60,25,30.20,30.08,5,1,10,0.00
2013-7-14,90,69,51,60,51,44,100,60,20,30.12,30.02,6,1,10,0.00
2013-7-15,88,69,52,55,49,45,88,54,27,30.04,29.86,9,2,10,0.00
2013-7-16,87,68,59,61,54,48,87,62,35,30.02,29.80,7,2,10,0.00
2013-7-17,84,66,57,57,55,52,90,70,35,30.20,30.02,6,2,9,0.00
2013-7-18,88,68,53,61,55,49,100,70,28,30.23,30.12,5,1,9,0.00
2013-7-19,87,68,51,62,56,51,100,69,36,30.18,30.05,6,1,9,0.00
2013-7-20,84,64,50,60,56,50,100,78,44,30.12,29.99,6,1,10,0.00
2013-7-21,88,69,49,60,56,49,100,69,37,30.02,29.94,5,1,8,0.00
2013-7-22,89,68,52,59,56,52,100,70,31,30.09,29.97,6,1,10,0.00
2013-7-23,96,74,55,65,58,50,100,65,27,30.08,29.99,7,1,10,0.00
2013-7-24,94,74,56,65,58,52,100,63,24,30.08,30.01,6,1,10,0.00
2013-7-25,94,74,55,63,54,47,100,55,23,30.13,30.04,6,1,11,0.04
2013-7-26,94,72,53,56,48,42,87,50,17,30.18,30.08,7,2,10,0.00
2013-7-27,84,64,49,58,50,47,100,64,31,30.22,30.06,6,2,10,0.00
2013-7-28,82,63,48,57,52,48,100,70,37,30.09,30.00,7,2,9,0.00
2013-7-29,81,62,52,55,53,50,100,77,39,30.05,29.99,6,1,9,0.00
2013-7-30,85,66,50,61,55,50,100,73,33,30.18,30.05,4,1,9,0.00
2013-7-31,79,63,54,62,57,54,100,82,51,30.14,30.06,7,2,11,0.00
2013-8-1,68,62,58,57,55,54,93,79,66,30.14,30.08,5,2,9,0.00
2013-8-2,71,64,56,58,56,53,100,78,55,30.18,30.13,3,0,9,0.00
2013-8-3,86,68,54,61,57,53,100,73,36,30.14,30.02,6,1,9,0.00
2013-8-4,91,72,57,64,59,54,100,69,31,30.06,29.95,7,2,9,0.00
2013-8-5,93,73,56,64,58,53,100,65,31,30.06,29.96,6,1,8,0.00
2013-8-6,96,73,53,55,50,44,82,49,20,30.04,29.94,4,1,9,0.00
2013-8-7,80,68,56,57,54,50,92,63,39,30.06,29.97,7,2,10,0.00
2013-8-8,87,67,54,61,58,54,100,76,40,30.08,29.96,6,1,9,0.00
2013-8-9,89,70,59,67,59,56,98,72,35,29.98,29.91,5,0,8,0.00
2013-8-10,82,67,57,65,59,57,100,79,48,30.06,29.94,6,2,9,0.10
2013-8-11,78,63,55,61,58,55,100,87,52,30.10,30.03,4,1,9,0.00
2013-8-12,80,66,58,62,58,52,100,78,46,30.10,30.06,6,2,8,0.00
2013-8-13,88,68,51,64,54,48,100,68,27,30.13,29.96,5,1,8,0.00
2013-8-14,86,67,55,64,57,52,100,75,31,30.00,29.97,7,1,9,0.00
2013-8-15,82,70,64,69,65,64,100,86,57,30.02,29.98,5,1,7,0.00
2013-8-16,87,72,64,70,63,52,100,76,46,30.07,30.00,6,1,10,0.00
2013-8-17,85,69,55,64,58,53,100,72,40,30.14,30.06,8,2,10,0.00
2013-8-18,88,72,57,61,58,56,100,68,38,30.18,30.08,7,1,9,0.00
2013-8-19,89,70,57,64,57,53,100,68,35,30.17,30.08,5,1,9,0.00
2013-8-20,85,69,50,61,52,46,100,60,26,30.16,30.04,6,1,10,0.00
2013-8-21,92,72,54,57,53,49,86,55,26,30.04,29.90,4,1,9,0.00
2013-8-22,85,70,57,60,56,54,98,64,35,29.94,29.89,7,2,8,0.00
2013-8-23,78,66,57,60,57,55,100,77,48,29.98,29.92,7,2,10,0.00
2013-8-24,76,66,59,64,58,54,100,76,48,29.95,29.90,5,1,9,0.00
2013-8-25,70,62,54,64,58,54,100,89,71,29.97,29.92,3,0,6,0.05
2013-8-26,79,63,53,64,57,47,100,85,34,30.00,29.93,6,1,14,0.23
2013-8-27,81,68,61,68,61,56,100,81,50,29.99,29.86,6,1,9,0.01
2013-8-28,79,67,58,70,62,56,100,86,53,29.94,29.87,5,1,6,0.07
2013-8-29,78,67,62,71,63,55,100,86,64,30.10,29.88,8,1,13,0.12
2013-8-30,83,69,59,67,59,50,94,73,41,30.19,30.08,5,0,8,0.00
2013-8-31,91,71,56,64,58,55,100,69,30,30.08,29.87,7,1,10,0.00
2013-9-1,87,69,53,63,56,53,100,68,33,29.94,29.86,6,2,11,0.00
2013-9-2,80,69,61,66,58,51,100,72,40,29.97,29.90,6,1,10,0.01
2013-9-3,82,69,59,60,55,51,94,65,36,30.03,29.95,8,1,9,0.00
2013-9-4,77,67,58,63,58,55,100,74,48,30.08,30.01,6,1,9,0.00
2013-9-5,69,62,59,68,60,52,100,92,74,30.06,30.00,6,1,10,0.93
2013-9-6,70,63,57,65,57,49,100,81,68,30.17,30.05,6,2,9,0.55
2013-9-7,85,65,55,66,58,51,100,81,43,30.13,30.00,6,1,9,0.00
2013-9-8,87,68,58,67,61,56,100,81,38,30.11,30.02,6,1,11,0.00
2013-9-9,86,67,57,67,62,54,100,86,46,30.07,29.96,5,1,7,0.00
2013-9-10,93,73,59,70,62,58,100,75,33,29.96,29.82,3,1,9,0.00
2013-9-11,97,76,62,65,60,57,89,62,30,29.97,29.84,7,2,10,0.00
2013-9-12,86,70,58,65,60,58,100,74,47,30.04,29.95,5,1,8,0.00
2013-9-13,79,62,55,67,60,55,100,94,59,29.99,29.87,4,0,7,0.00
2013-9-14,82,65,57,66,60,54,100,86,52,29.88,29.75,4,0,7,0.01
2013-9-15,69,62,57,65,60,57,100,95,77,29.92,29.74,6,1,9,0.00
2013-9-16,68,62,57,63,60,57,100,91,69,30.01,29.92,6,1,10,0.00
2013-9-17,70,61,54,62,55,50,100,83,53,30.03,29.89,7,1,9,0.00
2013-9-18,76,61,52,58,53,45,100,79,37,30.13,30.02,6,1,9,0.00
2013-9-19,80,61,47,58,52,47,100,75,38,30.02,29.79,6,1,8,0.00
2013-9-20,74,59,48,62,55,48,100,90,53,29.79,29.69,7,1,12,0.02
2013-9-21,67,58,52,63,56,52,100,95,73,29.79,29.70,6,1,9,0.02
2013-9-22,60,56,50,59,56,50,100,99,84,29.88,29.70,13,2,18,0.42
2013-9-23,63,57,53,61,56,52,100,97,82,30.01,29.88,6,2,7,0.32
2013-9-24,62,54,50,59,53,50,100,98,73,30.00,29.88,4,0,10,0.27
2013-9-25,62,53,48,55,51,48,100,93,63,30.05,29.87,6,1,7,0.05
2013-9-26,69,54,43,60,49,42,100,88,55,30.18,30.04,7,1,9,0.01
2013-9-27,57,51,44,56,51,44,100,99,92,30.18,29.93,7,2,17,0.18
2013-9-28,62,57,51,62,56,50,100,99,93,29.93,29.54,10,3,19,1.32
2013-9-29,55,53,51,55,53,47,100,98,85,29.70,29.40,12,3,25,1.67
2013-9-30,61,52,48,57,52,48,100,97,77,30.01,29.62,6,2,16,0.49
2013-10-1,63,51,43,56,46,38,100,85,61,30.20,29.98,6,1,9,0.31
2013-10-2,56,46,42,55,40,32,100,78,52,30.19,30.09,3,0,8,0.20
2013-10-3,62,47,37,59,38,24,100,72,43,30.42,30.18,4,0,7,0.00
2013-10-4,66,47,39,58,38,22,100,74,40,30.45,30.33,4,1,7,0.00
2013-10-5,74,54,42,59,45,30,100,75,42,30.33,30.14,4,0,7,0.00
2013-10-6,75,53,42,69,41,22,100,67,34,30.14,30.00,5,1,10,0.00
2013-10-7,64,55,50,57,50,43,100,86,60,30.15,30.00,7,3,11,0.04
2013-10-8,57,51,42,56,51,38,100,98,82,30.16,30.01,6,2,9,0.02
2013-10-9,63,51,40,56,44,25,100,79,46,30.10,29.98,3,1,9,0.00
2013-10-10,63,51,44,56,47,35,100,84,59,30.11,29.96,6,1,8,0.00
2013-10-11,59,50,43,52,45,38,100,87,57,30.16,30.09,4,0,7,0.00
2013-10-12,58,50,44,58,43,34,100,79,54,30.17,30.07,3,0,7,0.01
2013-10-13,63,49,39,58,41,23,100,77,39,30.30,30.17,6,0,7,0.00
2013-10-14,69,51,40,55,45,34,100,81,48,30.36,30.30,6,1,8,0.00
2013-10-15,69,52,42,49,45,40,100,81,37,30.32,30.13,5,1,9,0.00
2013-10-16,66,52,40,58,46,28,100,85,44,30.17,30.10,6,1,7,0.00
2013-10-17,63,49,40,58,40,21,100,73,36,30.23,30.16,3,0,7,0.00
2013-10-18,71,54,43,56,47,42,100,79,40,30.18,30.10,4,2,9,0.01
2013-10-19,67,51,40,58,46,35,100,87,53,30.16,30.10,3,1,7,0.00
2013-10-20,62,49,41,58,44,32,100,82,61,30.15,30.06,3,0,7,0.00
2013-10-21,69,52,40,67,46,32,100,83,62,30.09,30.00,3,1,6,0.01
2013-10-22,72,57,45,60,51,45,100,85,48,30.05,29.98,4,1,6,0.00
2013-10-23,68,54,43,63,50,41,100,90,58,30.02,29.96,3,1,6,0.00
2013-10-24,62,50,40,57,48,36,100,92,73,30.10,29.99,2,0,7,0.00
2013-10-25,53,50,44,53,48,43,100,95,86,30.28,30.10,1,0,5,0.01
2013-10-26,53,50,47,52,50,47,100,98,89,30.30,30.18,3,0,6,0.00
2013-10-27,57,50,47,55,48,44,100,93,73,30.18,29.85,8,1,14,0.02
2013-10-28,62,48,40,49,40,33,100,76,38,29.92,29.83,5,1,13,0.00
2013-10-29,59,44,35,39,35,33,97,74,40,30.04,29.92,3,1,8,0.00
2013-10-30,60,45,31,48,40,31,100,86,53,30.18,30.04,4,0,7,0.00
2013-10-31,60,53,50,54,50,46,100,90,78,30.28,30.16,4,1,8,0.00
2013-11-1,60,53,50,54,52,50,100,95,74,30.29,29.92,5,0,6,0.07
2013-11-2,56,49,44,52,48,43,100,95,69,30.07,29.75,9,4,17,0.58
2013-11-3,51,45,40,46,43,40,100,94,79,30.16,30.06,7,3,9,0.02
2013-11-4,51,47,44,51,47,44,100,100,96,30.17,30.10,4,1,13,0.05
2013-11-5,57,52,49,56,52,49,100,100,98,30.25,30.09,5,1,10,0.04
2013-11-6,53,51,49,52,51,49,100,100,99,30.30,30.09,1,0,3,0.37
2013-11-7,55,51,48,55,50,45,100,97,83,30.13,29.90,7,4,17,0.45
2013-11-8,52,48,44,51,48,44,100,99,92,30.20,30.12,4,1,8,0.01
2013-11-9,49,46,42,49,46,42,100,100,95,30.12,30.04,3,0,6,0.00
2013-11-10,55,48,43,55,47,43,100,97,80,30.09,30.04,5,0,7,0.00
2013-11-11,59,49,38,56,46,38,100,91,73,30.14,30.02,3,0,7,0.00
2013-11-12,54,50,47,54,50,45,100,100,88,30.43,30.07,1,0,6,0.28
2013-11-13,50,47,45,49,47,44,100,99,94,30.48,30.30,2,0,6,0.01
2013-11-14,52,47,41,52,46,41,100,99,95,30.30,30.10,5,1,6,0.00
2013-11-15,48,43,35,48,43,35,100,99,91,30.11,29.57,8,3,12,0.15
2013-11-16,50,47,42,48,44,41,100,90,78,29.86,29.56,8,4,14,0.02
2013-11-17,54,49,44,49,47,43,100,92,82,30.00,29.86,7,3,15,0.02
2013-11-18,53,51,49,52,49,46,100,94,86,29.98,29.73,10,3,21,0.24
2013-11-19,53,48,34,53,48,34,100,100,100,30.02,29.71,5,1,13,0.52
2013-11-20,46,36,29,42,33,28,100,91,73,30.36,30.02,4,1,15,0.00
2013-11-21,46,34,27,29,24,19,91,67,38,30.53,30.36,7,1,9,0.00
2013-11-22,47,37,28,28,22,19,77,56,41,30.53,30.36,6,1,9,0.00
2013-11-23,53,40,34,28,24,20,68,53,37,30.36,30.14,6,1,12,0.00
2013-11-24,49,36,29,35,29,24,100,78,45,30.25,30.12,4,1,6,0.00
2013-11-25,48,35,28,44,33,28,100,92,60,30.32,30.25,3,0,6,0.00
2013-11-26,46,36,29,42,34,29,100,93,69,30.26,30.05,3,1,6,0.00
2013-11-27,51,41,34,45,36,33,100,85,58,30.05,29.95,6,1,7,0.00
2013-11-28,51,39,32,42,35,32,100,87,57,30.18,30.00,4,1,6,0.00
2013-11-29,43,37,29,43,37,29,100,100,97,30.34,30.17,5,1,7,0.01
2013-11-30,49,43,38,47,43,38,100,99,91,30.37,30.21,4,0,7,0.01
2013-12-1,56,53,47,56,53,47,100,100,99,30.20,29.96,9,5,14,1.03
2013-12-2,51,42,33,51,40,33,100,96,83,30.03,29.94,7,3,12,0.20
2013-12-3,43,32,25,40,30,25,100,93,64,30.25,30.03,7,1,11,0.00
2013-12-4,36,27,22,32,23,19,100,87,58,30.29,30.24,4,1,10,0.00
2013-12-5,31,23,18,24,21,18,100,92,65,30.27,30.12,5,1,8,0.00
2013-12-6,29,25,22,25,20,15,100,82,67,30.12,29.91,6,1,13,0.00
2013-12-7,28,20,14,14,12,9,91,71,47,30.39,30.04,11,1,13,0.00
2013-12-8,26,18,11,17,14,11,100,86,59,30.55,30.39,2,0,6,0.00
2013-12-9,28,20,12,24,19,12,100,94,81,30.56,30.47,4,0,6,0.00
2013-12-10,32,27,23,28,26,23,100,96,83,30.50,30.35,6,0,7,0.00
2013-12-11,29,24,19,29,24,19,100,100,100,30.35,30.17,4,1,7,0.00
2013-12-12,32,26,20,32,26,20,100,100,100,30.18,30.07,3,0,7,0.01
2013-12-13,45,38,32,45,38,32,100,100,100,30.40,30.16,2,0,5,0.08
2013-12-14,41,38,36,41,38,36,100,100,100,30.43,30.33,5,0,6,0.00
2013-12-15,44,40,37,44,40,37,100,100,100,30.45,30.38,2,0,6,0.01
2013-12-16,43,40,38,43,40,38,100,100,97,30.44,30.22,3,0,6,0.01
2013-12-17,38,36,35,38,36,35,100,100,100,30.22,30.15,2,0,6,0.02
2013-12-18,41,36,30,41,36,30,100,100,95,30.15,30.02,2,0,5,0.09
2013-12-19,38,32,28,38,32,28,100,100,100,30.27,30.08,3,0,5,0.01
2013-12-20,47,36,31,47,36,31,100,100,95,30.18,29.86,7,1,12,0.07
2013-12-21,52,48,46,50,47,46,100,97,83,30.21,29.91,7,4,10,0.00
2013-12-22,54,48,43,51,48,43,100,98,88,30.34,30.21,6,2,7,0.00
2013-12-23,53,46,35,53,46,35,100,99,92,30.51,30.30,6,2,11,0.04
2013-12-24,42,35,32,42,35,32,100,100,100,30.57,30.44,3,0,7,0.00
2013-12-25,37,36,34,37,36,34,100,100,100,30.44,30.36,2,0,5,0.00
2013-12-26,35,34,32,35,34,32,100,100,100,30.36,30.20,4,0,6,0.01
2013-12-27,34,32,30,34,32,30,100,100,100,30.36,30.16,3,0,6,0.00
2013-12-28,43,36,27,43,36,27,100,100,95,30.46,30.36,5,0,6,0.01
2013-12-29,39,37,33,39,37,33,100,100,100,30.43,30.25,3,0,4,0.00
2013-12-30,40,37,34,40,37,34,100,100,100,30.25,30.16,3,0,6,0.00
2013-12-31,45,40,37,45,40,37,100,100,100,30.31,30.20,4,0,6,0.04
2014-1-1,43,39,34,43,39,34,100,100,94,30.32,30.23,3,0,6,0.00
2014-1-2,44,39,37,41,38,37,100,98,85,30.23,30.01,4,0,7,0.02